Location: Bailleul
(50.3375°N, 2.8513°E)
Time: 04:54:58
(UTC+00:00)

Cosmos 2151 - Pass Details

Date: 19 April 2021
Orbit: 582 x 600 km, 82.5° (Epoch: 09 May)

Event Time Altitude Azimuth Distance (km) Brightness Sun altitude
Rises 20:45:12 0° 348° (NNW) 2,863 7.4 -16.5°
Reaches altitude 10° 20:47:25 10° 347° (NNW) 1,955 6.5 -16.8°
Maximum altitude 20:51:44 77° 262° (W) 622 3.1 -17.3°
Enters shadow 20:54:08 26° 180° (S) 1,198 4.1 -17.5°
